When you browse on this site, cookies collect data to enhance your experience and personalize the content and advertising you see.
Visit our Privacy Policy to learn more. By continuing to use the site, you agree to this use of cookies and data.
  • en France
  • Liste des pays
  • À 7 jours
  • Température de l'eau
  • Carte satellitaire
  • Carte météo
  • Widgets météo
  • user-avatar
    Se connecter

    Météo par heure à Bijeljina

    Ce jour, 23 Mars, Samedi

    Heure Température Précipitation Vent Pression Humidité
    00:00 +10°C° 0 mm 1 m/s 763 mmHg 56%
    01:00 +10°C° 0 mm 1 m/s 763 mmHg 58%
    02:00 +9°C° 0 mm 1 m/s 762 mmHg 59%
    03:00 +9°C° 0 mm 1 m/s 762 mmHg 60%
    04:00 +8°C° 0 mm 1 m/s 762 mmHg 61%
    05:00 +9°C° 0 mm 1 m/s 762 mmHg 61%
    06:00 +9°C° 0 mm 1 m/s 762 mmHg 62%
    07:00 +10°C° 0 mm 1 m/s 762 mmHg 58%
    08:00 +12°C° 0 mm 1 m/s 762 mmHg 56%
    09:00 +14°C° 0 mm 1 m/s 762 mmHg 53%
    10:00 +16°C° 0 mm 2 m/s 762 mmHg 50%
    11:00 +17°C° 0 mm 2 m/s 761 mmHg 47%
    12:00 +18°C° 0 mm 2 m/s 761 mmHg 44%
    13:00 +19°C° 0 mm 3 m/s 761 mmHg 42%
    14:00 +19°C° 0 mm 3 m/s 760 mmHg 40%
    15:00 +19°C° 0 mm 2 m/s 760 mmHg 38%
    16:00 +19°C° 0 mm 2 m/s 760 mmHg 36%
    17:00 +17°C° 0 mm 2 m/s 760 mmHg 39%
    18:00 +15°C° 0 mm 1 m/s 760 mmHg 43%
    19:00 +13°C° 0 mm 1 m/s 760 mmHg 47%
    20:00 +13°C° 0 mm 1 m/s 760 mmHg 48%
    21:00 +11°C° 0 mm 0 m/s 760 mmHg 50%
    22:00 +10°C° 0 mm 0 m/s 761 mmHg 51%
    23:00 +10°C° 0 mm 0 m/s 761 mmHg 53%

    Demain, 24 Mars, Dimanche

    Heure Température Précipitation Vent Pression Humidité
    00:00 +9°C° 0 mm 0 m/s 761 mmHg 54%
    01:00 +10°C° 0 mm 1 m/s 761 mmHg 55%
    02:00 +9°C° 0 mm 1 m/s 761 mmHg 57%
    03:00 +9°C° 0 mm 1 m/s 760 mmHg 58%
    04:00 +9°C° 0 mm 1 m/s 760 mmHg 59%
    05:00 +9°C° 0 mm 1 m/s 760 mmHg 60%
    06:00 +10°C° 0 mm 1 m/s 760 mmHg 60%
    07:00 +10°C° 0 mm 1 m/s 760 mmHg 60%
    08:00 +12°C° 0 mm 1 m/s 760 mmHg 53%
    09:00 +14°C° 0 mm 0 m/s 760 mmHg 45%
    10:00 +16°C° 0 mm 0 m/s 760 mmHg 38%
    11:00 +19°C° 0 mm 1 m/s 759 mmHg 35%
    12:00 +20°C° 0 mm 1 m/s 758 mmHg 32%
    13:00 +21°C° 0 mm 1 m/s 758 mmHg 29%
    14:00 +21°C° 0 mm 1 m/s 757 mmHg 29%
    15:00 +20°C° 0 mm 2 m/s 757 mmHg 29%
    16:00 +20°C° 0 mm 2 m/s 756 mmHg 30%
    17:00 +18°C° 0 mm 2 m/s 756 mmHg 34%
    18:00 +16°C° 0 mm 1 m/s 756 mmHg 39%
    19:00 +14°C° 0 mm 1 m/s 756 mmHg 43%
    20:00 +13°C° 0 mm 1 m/s 756 mmHg 45%
    21:00 +13°C° 0 mm 1 m/s 756 mmHg 48%
    22:00 +12°C° 0 mm 1 m/s 756 mmHg 50%
    23:00 +11°C° 0 mm 1 m/s 755 mmHg 51%

    Après-demain, 25 Mars, Lundi

    Heure Température Précipitation Vent Pression Humidité
    00:00 +11°C° 0 mm 1 m/s 755 mmHg 53%
    01:00 +11°C° 0 mm 1 m/s 755 mmHg 54%
    02:00 +10°C° 0 mm 1 m/s 755 mmHg 55%
    03:00 +10°C° 0 mm 1 m/s 754 mmHg 56%
    04:00 +10°C° 0 mm 1 m/s 754 mmHg 57%
    05:00 +10°C° 0 mm 1 m/s 754 mmHg 57%
    06:00 +10°C° 0 mm 1 m/s 754 mmHg 58%
    07:00 +11°C° 0 mm 1 m/s 753 mmHg 58%
    08:00 +13°C° 0 mm 1 m/s 753 mmHg 52%
    09:00 +15°C° 0 mm 1 m/s 753 mmHg 45%
    10:00 +19°C° 0 mm 1 m/s 753 mmHg 38%
    11:00 +20°C° 0 mm 1 m/s 752 mmHg 36%
    12:00 +21°C° 0 mm 1 m/s 751 mmHg 34%
    13:00 +22°C° 0 mm 1 m/s 751 mmHg 32%
    14:00 +21°C° 0 mm 2 m/s 750 mmHg 33%
    15:00 +20°C° 0 mm 2 m/s 750 mmHg 35%
    16:00 +20°C° 0 mm 2 m/s 750 mmHg 36%
    17:00 +18°C° 0 mm 3 m/s 750 mmHg 44%
    18:00 +15°C° 0 mm 4 m/s 751 mmHg 51%
    19:00 +13°C° 0 mm 5 m/s 751 mmHg 59%
    20:00 +10°C° 0.5 mm 5 m/s 752 mmHg 67%
    21:00 +9°C° 0.5 mm 6 m/s 753 mmHg 74%
    22:00 +8°C° 0.5 mm 6 m/s 754 mmHg 81%
    23:00 +8°C° 1.1 mm 6 m/s 755 mmHg 78%

    26 Mars, Mardi

    Heure Température Précipitation Vent Pression Humidité
    00:00 +7°C° 1.1 mm 5 m/s 756 mmHg 75%
    01:00 +7°C° 1.1 mm 5 m/s 756 mmHg 71%
    02:00 +6°C° 0 mm 4 m/s 757 mmHg 72%
    03:00 +6°C° 0 mm 4 m/s 757 mmHg 73%
    04:00 +5°C° 0 mm 3 m/s 757 mmHg 73%
    05:00 +5°C° 0 mm 3 m/s 757 mmHg 71%
    06:00 +5°C° 0 mm 3 m/s 758 mmHg 68%
    07:00 +5°C° 0 mm 4 m/s 758 mmHg 66%
    08:00 +6°C° 0 mm 4 m/s 759 mmHg 60%
    09:00 +7°C° 0 mm 4 m/s 759 mmHg 55%
    10:00 +8°C° 0 mm 4 m/s 759 mmHg 49%
    11:00 +10°C° 0 mm 4 m/s 759 mmHg 46%
    12:00 +11°C° 0 mm 4 m/s 759 mmHg 43%
    13:00 +11°C° 0 mm 4 m/s 759 mmHg 40%
    14:00 +11°C° 0 mm 4 m/s 759 mmHg 39%
    15:00 +11°C° 0 mm 3 m/s 759 mmHg 38%
    16:00 +12°C° 0 mm 3 m/s 759 mmHg 37%
    17:00 +11°C° 0 mm 3 m/s 759 mmHg 41%
    18:00 +10°C° 0 mm 2 m/s 760 mmHg 44%
    19:00 +9°C° 0 mm 2 m/s 760 mmHg 48%
    20:00 +8°C° 0 mm 2 m/s 761 mmHg 51%
    21:00 +8°C° 0 mm 2 m/s 761 mmHg 54%
    22:00 +7°C° 0 mm 2 m/s 761 mmHg 57%
    23:00 +6°C° 0 mm 2 m/s 762 mmHg 58%

    27 Mars, Mercredi

    Heure Température Précipitation Vent Pression Humidité
    00:00 +6°C° 0 mm 2 m/s 762 mmHg 60%
    01:00 +6°C° 0 mm 1 m/s 762 mmHg 61%
    02:00 +5°C° 0 mm 1 m/s 762 mmHg 62%
    03:00 +4°C° 0 mm 2 m/s 762 mmHg 63%
    04:00 +3°C° 0 mm 2 m/s 762 mmHg 64%
    05:00 +3°C° 0 mm 2 m/s 762 mmHg 63%
    06:00 +4°C° 0 mm 2 m/s 762 mmHg 62%
    07:00 +4°C° 0 mm 2 m/s 763 mmHg 61%
    08:00 +6°C° 0 mm 2 m/s 763 mmHg 56%
    09:00 +7°C° 0 mm 2 m/s 763 mmHg 51%
    10:00 +9°C° 0 mm 2 m/s 763 mmHg 46%
    11:00 +10°C° 0 mm 2 m/s 762 mmHg 43%
    12:00 +12°C° 0 mm 2 m/s 762 mmHg 40%
    13:00 +13°C° 0 mm 2 m/s 762 mmHg 38%
    14:00 +13°C° 0 mm 2 m/s 762 mmHg 37%
    15:00 +13°C° 0 mm 2 m/s 762 mmHg 37%
    16:00 +13°C° 0 mm 2 m/s 761 mmHg 36%
    17:00 +12°C° 0 mm 2 m/s 762 mmHg 40%
    18:00 +9°C° 0 mm 2 m/s 762 mmHg 43%
    19:00 +9°C° 0 mm 1 m/s 763 mmHg 47%
    20:00 +9°C° 0 mm 1 m/s 763 mmHg 48%
    21:00 +9°C° 0 mm 1 m/s 763 mmHg 49%
    22:00 +9°C° 0 mm 1 m/s 763 mmHg 50%
    23:00 +8°C° 0 mm 1 m/s 764 mmHg 53%

    28 Mars, Jeudi

    Heure Température Précipitation Vent Pression Humidité
    00:00 +7°C° 0 mm 1 m/s 764 mmHg 55%
    01:00 +6°C° 0 mm 1 m/s 764 mmHg 57%
    02:00 +6°C° 0 mm 1 m/s 764 mmHg 59%
    03:00 +5°C° 0 mm 1 m/s 764 mmHg 62%
    04:00 +4°C° 0 mm 1 m/s 764 mmHg 64%
    05:00 +5°C° 0 mm 1 m/s 764 mmHg 63%
    06:00 +5°C° 0 mm 1 m/s 764 mmHg 62%
    07:00 +5°C° 0 mm 2 m/s 765 mmHg 61%
    08:00 +6°C° 0 mm 2 m/s 765 mmHg 56%
    09:00 +8°C° 0 mm 2 m/s 765 mmHg 52%
    10:00 +10°C° 0 mm 3 m/s 765 mmHg 48%
    11:00 +11°C° 0 mm 3 m/s 765 mmHg 47%
    12:00 +12°C° 0 mm 3 m/s 764 mmHg 46%
    13:00 +13°C° 0 mm 4 m/s 764 mmHg 45%
    14:00 +12°C° 0 mm 3 m/s 764 mmHg 46%
    15:00 +12°C° 0 mm 3 m/s 764 mmHg 46%
    16:00 +12°C° 0 mm 3 m/s 763 mmHg 46%
    17:00 +11°C° 0 mm 3 m/s 764 mmHg 51%
    18:00 +10°C° 0 mm 2 m/s 764 mmHg 55%
    19:00 +9°C° 0 mm 1 m/s 764 mmHg 59%
    20:00 +9°C° 0 mm 1 m/s 765 mmHg 61%
    21:00 +8°C° 0 mm 1 m/s 765 mmHg 62%
    22:00 +7°C° 0 mm 1 m/s 765 mmHg 64%
    23:00 +6°C° 0 mm 0 m/s 765 mmHg 65%
    Voir plus